Stations météo

réclame
Mon MeteoGroup
Cassley, Grande-Bretagne (99003): Température de l'air & dewpoint: 13.06.2018 19:00:00 - 19.06.2018 19:00:00 (BST)Cassley, Grande-Bretagne (99003): Quantités de précipitations: 13.06.2018 19:00:00 - 19.06.2018 19:00:00 (BST)
Date & Time tt [°C] td [°C] rr [mm]
19.06.2018 19:00:00 11,6 5,5 0,0
19.06.2018 18:00:00 12,1 5,0 0,0
19.06.2018 17:00:00 12,3 6,3 0,0
19.06.2018 16:00:00 12,2 5,4 0,0
19.06.2018 15:00:00 12,7 4,9 0,0
19.06.2018 14:00:00 12,3 5,6 0,0
19.06.2018 13:00:00 12,6 6,0 0,0
19.06.2018 12:00:00 13,1 6,6 0,0
19.06.2018 11:00:00 12,8 6,4 0,0
19.06.2018 10:00:00 9,9 7,1 0,2
19.06.2018 09:00:00 12,0 6,4 0,0
19.06.2018 08:00:00 11,0 5,6 0,0
19.06.2018 07:00:00 10,4 5,6 0,0
19.06.2018 06:00:00 9,7 6,0 0,2
19.06.2018 05:00:00 8,3 6,0 0,8
19.06.2018 04:00:00 9,0 5,1 0,2
19.06.2018 03:00:00 9,7 4,9 0,0
19.06.2018 02:00:00 9,5 5,0 0,2
19.06.2018 01:00:00 8,6 5,9 -
19.06.2018 00:00:00 8,9 6,4 2,8
18.06.2018 23:00:00 9,0 5,9 1,2
18.06.2018 22:00:00 9,4 6,4 2,0
18.06.2018 21:00:00 10,8 4,7 0,6
18.06.2018 20:00:00 10,3 5,2 0,4
18.06.2018 19:00:00 11,0 4,3 0,0
18.06.2018 18:00:00 11,2 5,2 0,4
18.06.2018 17:00:00 11,2 5,6 1,8
18.06.2018 16:00:00 10,4 7,2 1,6
18.06.2018 15:00:00 13,7 5,8 0,0
18.06.2018 14:00:00 13,4 5,4 0,0
18.06.2018 13:00:00 13,8 5,4 0,0
18.06.2018 12:00:00 12,9 6,4 0,2
18.06.2018 11:00:00 10,9 7,0 0,0
18.06.2018 10:00:00 12,0 5,3 0,0
18.06.2018 09:00:00 11,5 5,2 0,0
18.06.2018 08:00:00 11,0 5,6 0,0
18.06.2018 07:00:00 10,9 5,8 0,0
18.06.2018 06:00:00 10,9 5,7 0,0
18.06.2018 05:00:00 11,1 5,7 0,0
18.06.2018 04:00:00 11,7 5,3 0,0
18.06.2018 03:00:00 11,7 6,3 0,0
18.06.2018 02:00:00 11,4 8,0 0,0
18.06.2018 01:00:00 12,0 9,1 0,2
18.06.2018 00:00:00 12,4 10,0 0,2
17.06.2018 23:00:00 12,6 11,6 1,0
17.06.2018 22:00:00 12,5 11,4 0,2
17.06.2018 21:00:00 12,4 10,9 0,0
17.06.2018 20:00:00 12,9 10,8 0,2
17.06.2018 19:00:00 14,8 9,3 0,0
17.06.2018 18:00:00 14,7 8,9 0,0
17.06.2018 17:00:00 15,5 7,8 0,0
17.06.2018 16:00:00 16,2 8,6 0,0
17.06.2018 15:00:00 18,1 9,6 0,0
17.06.2018 14:00:00 15,3 9,6 0,0
17.06.2018 13:00:00 14,9 8,3 0,0
17.06.2018 12:00:00 14,6 8,7 0,0
17.06.2018 11:00:00 14,7 7,6 0,0
17.06.2018 10:00:00 14,1 6,8 0,0
17.06.2018 09:00:00 13,5 7,0 0,0
17.06.2018 08:00:00 12,2 8,5 0,0
17.06.2018 07:00:00 11,1 8,1 0,0
17.06.2018 06:00:00 10,1 8,0 0,0
17.06.2018 05:00:00 9,9 7,8 0,0
17.06.2018 04:00:00 10,3 8,4 0,0
17.06.2018 03:00:00 10,3 8,7 0,0
17.06.2018 02:00:00 10,6 9,1 0,0
17.06.2018 01:00:00 10,5 9,3 0,0
17.06.2018 00:00:00 10,3 9,3 0,0
16.06.2018 23:00:00 10,6 9,3 0,4
16.06.2018 22:00:00 11,0 9,6 0,2
16.06.2018 21:00:00 12,6 9,9 0,0
16.06.2018 20:00:00 12,3 9,8 0,0
16.06.2018 19:00:00 13,0 9,5 0,0
16.06.2018 18:00:00 13,4 9,9 0,0
16.06.2018 17:00:00 13,4 10,3 0,0
16.06.2018 16:00:00 13,1 10,5 0,0
16.06.2018 15:00:00 13,5 10,7 0,4
16.06.2018 14:00:00 13,0 10,4 0,4
16.06.2018 13:00:00 12,8 10,9 0,6
16.06.2018 12:00:00 12,5 10,0 0,2
16.06.2018 11:00:00 13,2 8,5 0,0
16.06.2018 10:00:00 12,5 8,8 0,0
16.06.2018 09:00:00 12,7 9,1 0,0
16.06.2018 08:00:00 11,9 9,0 0,0
16.06.2018 07:00:00 10,2 8,2 0,0
16.06.2018 06:00:00 8,1 7,2 0,0
16.06.2018 05:00:00 7,6 6,5 0,0
16.06.2018 04:00:00 8,2 7,0 0,0
16.06.2018 03:00:00 8,4 7,2 0,0
16.06.2018 02:00:00 7,7 5,9 0,0
16.06.2018 01:00:00 8,4 7,2 0,0
16.06.2018 00:00:00 8,9 7,3 0,2
15.06.2018 23:00:00 9,4 8,2 0,2
15.06.2018 22:00:00 10,4 8,5 0,2
15.06.2018 21:00:00 11,9 7,9 0,0
15.06.2018 20:00:00 12,6 8,0 0,0
15.06.2018 19:00:00 13,3 6,8 0,0
15.06.2018 18:00:00 13,9 6,3 0,0
15.06.2018 17:00:00 13,9 7,7 0,0
15.06.2018 16:00:00 12,1 8,4 0,8
15.06.2018 15:00:00 13,6 6,5 0,0
15.06.2018 14:00:00 12,0 7,4 1,6
15.06.2018 13:00:00 11,0 8,4 0,4
15.06.2018 12:00:00 13,0 8,1 0,0
15.06.2018 11:00:00 11,9 8,3 0,4
15.06.2018 10:00:00 10,1 7,1 1,0
15.06.2018 09:00:00 10,5 8,1 4,0
15.06.2018 08:00:00 11,2 8,6 0,2
15.06.2018 07:00:00 10,4 7,6 1,0
15.06.2018 06:00:00 10,7 6,2 0,2
15.06.2018 05:00:00 10,1 6,6 0,4
15.06.2018 04:00:00 10,5 6,5 0,0
15.06.2018 03:00:00 10,6 6,1 0,0
15.06.2018 02:00:00 10,4 6,0 0,0
15.06.2018 01:00:00 10,4 5,6 0,0
15.06.2018 00:00:00 10,0 6,0 0,0
14.06.2018 23:00:00 10,3 5,1 0,0
14.06.2018 22:00:00 10,2 5,3 0,0
14.06.2018 21:00:00 10,4 5,7 0,0
14.06.2018 20:00:00 10,4 5,5 0,2
14.06.2018 19:00:00 9,8 7,4 0,4
14.06.2018 18:00:00 10,5 6,8 0,8
14.06.2018 17:00:00 10,3 6,7 0,4
14.06.2018 16:00:00 11,5 6,3 0,0
14.06.2018 15:00:00 10,8 7,4 0,2
14.06.2018 14:00:00 10,6 7,7 0,6
14.06.2018 13:00:00 9,6 8,9 4,8
14.06.2018 12:00:00 10,1 8,9 5,4
14.06.2018 11:00:00 10,9 9,4 2,8
14.06.2018 10:00:00 11,4 10,1 3,6
14.06.2018 09:00:00 14,6 10,4 0,0
14.06.2018 08:00:00 14,0 10,7 0,0
14.06.2018 07:00:00 13,6 11,1 0,8
14.06.2018 06:00:00 13,9 12,7 2,8
14.06.2018 05:00:00 14,3 12,9 1,6
14.06.2018 04:00:00 15,0 13,8 1,0
14.06.2018 03:00:00 14,3 13,5 1,2
14.06.2018 02:00:00 13,3 12,5 2,6
14.06.2018 01:00:00 12,1 11,6 1,8
14.06.2018 00:00:00 11,9 11,2 0,6
13.06.2018 23:00:00 11,9 11,0 1,4
13.06.2018 22:00:00 12,0 11,1 1,0
13.06.2018 21:00:00 12,3 11,3 0,8
13.06.2018 20:00:00 12,7 11,6 0,8
13.06.2018 19:00:00 12,7 11,4 1,0

tt = Température de l'air
td = dewpoint
rr = Quantités de précipitations

stations d'obs. à proximité